Location: Cucq
(50.4773°N, 1.6202°E)
Time: 10:34:40
(UTC+00:00)

GENESIS II - Pass Details

Date: 07 August 2020
Orbit: 490 x 538 km, 64.5° (Epoch: 20 September)

Event Time Altitude Azimuth Distance (km) Brightness Sun altitude
Rises 00:01:21 0° 319° (NW) 2,694 8.6 -23.2°
Reaches altitude 10° 00:03:34 10° 322° (NW) 1,794 7.6 -23.2°
Maximum altitude 00:07:36 71° 47° (NE) 563 4.3 -23.2°
Enters shadow 00:07:40 71° 57° (ENE) 564 4.3 -23.2°
